• In Russia
  • List of Countries
  • For 7 days
  • Water Temperature
  • Weather Map
  • Weather Widgets
  • user-avatar
    Login

    Hourly Weather Swansea

    Today, 21 January, Tuesday

    Time Temperature Precipitation Wind Pressure Humidity
    00:00 +2°C° 0 mm 2 mps 782 mmHg 92%
    01:00 +2°C° 0 mm 2 mps 781 mmHg 92%
    02:00 +3°C° 0 mm 1 mps 781 mmHg 93%
    03:00 +3°C° 0 mm 1 mps 781 mmHg 94%
    04:00 +3°C° 0 mm 1 mps 780 mmHg 93%
    05:00 +3°C° 0 mm 1 mps 780 mmHg 93%
    06:00 +3°C° 0 mm 1 mps 780 mmHg 92%
    07:00 +3°C° 0 mm 1 mps 780 mmHg 91%
    08:00 +2°C° 0 mm 2 mps 780 mmHg 91%
    09:00 +2°C° 0 mm 2 mps 780 mmHg 90%
    10:00 +3°C° 0 mm 2 mps 780 mmHg 85%
    11:00 +5°C° 0 mm 2 mps 780 mmHg 80%
    12:00 +7°C° 0 mm 1 mps 780 mmHg 75%
    13:00 +7°C° 0 mm 1 mps 780 mmHg 76%
    14:00 +7°C° 0 mm 1 mps 779 mmHg 78%
    15:00 +7°C° 0 mm 1 mps 779 mmHg 79%
    16:00 +6°C° 0 mm 1 mps 779 mmHg 82%
    17:00 +5°C° 0 mm 1 mps 779 mmHg 84%
    18:00 +4°C° 0 mm 1 mps 779 mmHg 86%
    19:00 +3°C° 0 mm 1 mps 779 mmHg 86%
    20:00 +3°C° 0 mm 1 mps 779 mmHg 86%
    21:00 +3°C° 0 mm 1 mps 779 mmHg 86%
    22:00 +4°C° 0 mm 1 mps 779 mmHg 86%
    23:00 +5°C° 0 mm 1 mps 779 mmHg 85%

    Tomorrow, 22 January, Wednesday

    Time Temperature Precipitation Wind Pressure Humidity
    00:00 +5°C° 0 mm 1 mps 778 mmHg 85%
    01:00 +6°C° 0 mm 1 mps 778 mmHg 87%
    02:00 +6°C° 0 mm 1 mps 778 mmHg 88%
    03:00 +6°C° 0 mm 1 mps 778 mmHg 90%
    04:00 +6°C° 0 mm 1 mps 777 mmHg 91%
    05:00 +5°C° 0 mm 2 mps 777 mmHg 92%
    06:00 +4°C° 0 mm 2 mps 776 mmHg 94%
    07:00 +5°C° 0 mm 2 mps 777 mmHg 94%
    08:00 +5°C° 0 mm 2 mps 777 mmHg 94%
    09:00 +5°C° 0 mm 2 mps 777 mmHg 95%
    10:00 +7°C° 0 mm 2 mps 777 mmHg 93%
    11:00 +9°C° 0 mm 1 mps 776 mmHg 91%
    12:00 +10°C° 0 mm 1 mps 776 mmHg 88%
    13:00 +11°C° 0 mm 1 mps 776 mmHg 89%
    14:00 +10°C° 0 mm 2 mps 776 mmHg 90%
    15:00 +10°C° 0 mm 2 mps 775 mmHg 91%
    16:00 +9°C° 0 mm 2 mps 775 mmHg 92%
    17:00 +8°C° 0 mm 2 mps 775 mmHg 93%
    18:00 +7°C° 0 mm 2 mps 775 mmHg 94%
    19:00 +7°C° 0 mm 2 mps 775 mmHg 95%
    20:00 +7°C° 0 mm 2 mps 775 mmHg 95%
    21:00 +5°C° 0 mm 3 mps 775 mmHg 95%
    22:00 +5°C° 0 mm 3 mps 775 mmHg 96%
    23:00 +5°C° 0 mm 3 mps 774 mmHg 96%

    Day after tomorrow, 23 January, Thursday

    Time Temperature Precipitation Wind Pressure Humidity
    00:00 +5°C° 0 mm 3 mps 774 mmHg 96%
    01:00 +5°C° 0 mm 3 mps 774 mmHg 96%
    02:00 +5°C° 0 mm 3 mps 773 mmHg 96%
    03:00 +7°C° 0 mm 3 mps 773 mmHg 96%
    04:00 +5°C° 0 mm 3 mps 772 mmHg 95%
    05:00 +5°C° 0 mm 3 mps 772 mmHg 95%
    06:00 +5°C° 0 mm 3 mps 772 mmHg 95%
    07:00 +5°C° 0 mm 3 mps 772 mmHg 95%
    08:00 +5°C° 0 mm 3 mps 771 mmHg 94%
    09:00 +4°C° 0 mm 3 mps 771 mmHg 94%
    10:00 +5°C° 0 mm 3 mps 771 mmHg 91%
    11:00 +7°C° 0 mm 3 mps 771 mmHg 89%
    12:00 +8°C° 0 mm 2 mps 770 mmHg 86%
    13:00 +9°C° 0 mm 2 mps 770 mmHg 86%
    14:00 +9°C° 0 mm 2 mps 769 mmHg 86%
    15:00 +9°C° 0 mm 2 mps 768 mmHg 86%
    16:00 +8°C° 0 mm 2 mps 768 mmHg 88%
    17:00 +7°C° 0 mm 2 mps 767 mmHg 91%
    18:00 +4°C° 0 mm 3 mps 767 mmHg 94%
    19:00 +5°C° 0 mm 2 mps 766 mmHg 94%
    20:00 +5°C° 0 mm 2 mps 766 mmHg 95%
    21:00 +5°C° 0 mm 2 mps 766 mmHg 95%
    22:00 +5°C° 0 mm 2 mps 766 mmHg 95%
    23:00 +6°C° 0 mm 2 mps 765 mmHg 95%

    24 January, Friday

    Time Temperature Precipitation Wind Pressure Humidity
    00:00 +7°C° 0 mm 1 mps 765 mmHg 94%
    01:00 +7°C° 0 mm 1 mps 764 mmHg 94%
    02:00 +6°C° 0 mm 2 mps 764 mmHg 94%
    03:00 +6°C° 0 mm 2 mps 764 mmHg 94%
    04:00 +6°C° 0 mm 2 mps 763 mmHg 93%
    05:00 +6°C° 0 mm 2 mps 763 mmHg 93%
    06:00 +7°C° 0 mm 1 mps 762 mmHg 93%
    07:00 +7°C° 0 mm 1 mps 762 mmHg 92%
    08:00 +7°C° 0 mm 1 mps 762 mmHg 92%
    09:00 +7°C° 0 mm 1 mps 762 mmHg 92%
    10:00 +7°C° 0 mm 1 mps 762 mmHg 91%
    11:00 +8°C° 0 mm 1 mps 762 mmHg 90%
    12:00 +8°C° 0 mm 1 mps 762 mmHg 89%
    13:00 +8°C° 0 mm 1 mps 762 mmHg 90%
    14:00 +8°C° 0 mm 1 mps 761 mmHg 90%
    15:00 +8°C° 0 mm 1 mps 761 mmHg 91%
    16:00 +7°C° 0 mm 0 mps 761 mmHg 92%
    17:00 +6°C° 0 mm 0 mps 761 mmHg 94%
    18:00 +6°C° 0 mm 0 mps 761 mmHg 95%
    19:00 +6°C° 0 mm 0 mps 761 mmHg 95%
    20:00 +6°C° 0 mm 0 mps 761 mmHg 95%
    21:00 +5°C° 0 mm 0 mps 761 mmHg 95%
    22:00 +5°C° 0 mm 0 mps 760 mmHg 95%
    23:00 +4°C° 0 mm 0 mps 760 mmHg 95%

    25 January, Saturday

    Time Temperature Precipitation Wind Pressure Humidity
    00:00 +4°C° 0 mm 0 mps 760 mmHg 95%
    01:00 +4°C° 0 mm 0 mps 759 mmHg 96%
    02:00 +4°C° 0 mm 0 mps 759 mmHg 96%
    03:00 +4°C° 0 mm 1 mps 759 mmHg 96%
    04:00 +4°C° 0 mm 1 mps 758 mmHg 96%
    05:00 +4°C° 0 mm 1 mps 758 mmHg 96%
    06:00 +3°C° 0 mm 2 mps 758 mmHg 96%
    07:00 +4°C° 0 mm 2 mps 758 mmHg 96%
    08:00 +4°C° 0 mm 3 mps 758 mmHg 96%
    09:00 +4°C° 0 mm 3 mps 758 mmHg 96%
    10:00 +5°C° 0 mm 4 mps 757 mmHg 93%
    11:00 +5°C° 0 mm 5 mps 757 mmHg 90%
    12:00 +5°C° 0 mm 6 mps 757 mmHg 88%
    13:00 +5°C° 0 mm 6 mps 756 mmHg 88%
    14:00 +5°C° 0 mm 6 mps 755 mmHg 88%
    15:00 +6°C° 0 mm 7 mps 755 mmHg 88%
    16:00 +6°C° 0.1 mm 7 mps 754 mmHg 89%
    17:00 +6°C° 0.1 mm 8 mps 754 mmHg 89%
    18:00 +6°C° 0.1 mm 8 mps 754 mmHg 90%
    19:00 +6°C° 0.3 mm 9 mps 754 mmHg 91%
    20:00 +6°C° 0.3 mm 9 mps 754 mmHg 93%
    21:00 +7°C° 0.3 mm 10 mps 754 mmHg 95%
    22:00 +6°C° 0.2 mm 9 mps 754 mmHg 93%
    23:00 +6°C° 0.2 mm 8 mps 754 mmHg 92%

    26 January, Sunday

    Time Temperature Precipitation Wind Pressure Humidity
    00:00 +6°C° 0.2 mm 7 mps 754 mmHg 90%
    01:00 +5°C° 0 mm 7 mps 754 mmHg 90%
    02:00 +5°C° 0 mm 7 mps 754 mmHg 89%
    03:00 +4°C° 0 mm 7 mps 754 mmHg 89%
    04:00 +4°C° 0.1 mm 7 mps 755 mmHg 88%
    05:00 +5°C° 0.1 mm 7 mps 755 mmHg 87%
    06:00 +5°C° 0.1 mm 7 mps 755 mmHg 87%
    07:00 +5°C° 0 mm 7 mps 756 mmHg 86%
    08:00 +4°C° 0 mm 7 mps 756 mmHg 84%
    09:00 +4°C° 0 mm 7 mps 757 mmHg 83%
    10:00 +5°C° 0 mm 7 mps 757 mmHg 82%
    11:00 +5°C° 0 mm 8 mps 758 mmHg 80%
    12:00 +6°C° 0 mm 8 mps 758 mmHg 79%
    13:00 +6°C° 0 mm 8 mps 758 mmHg 78%
    14:00 +6°C° 0 mm 8 mps 758 mmHg 77%
    15:00 +6°C° 0 mm 7 mps 758 mmHg 76%
    16:00 +6°C° 0 mm 7 mps 758 mmHg 79%
    17:00 +5°C° 0 mm 7 mps 758 mmHg 81%
    18:00 +5°C° 0 mm 7 mps 758 mmHg 84%
    19:00 +5°C° 0 mm 7 mps 758 mmHg 85%
    20:00 +6°C° 0 mm 7 mps 758 mmHg 87%
    21:00 +6°C° 0 mm 7 mps 757 mmHg 88%
    22:00 +6°C° 0 mm 8 mps 757 mmHg 89%
    23:00 +7°C° 0 mm 9 mps 756 mmHg 89%
    Show more